Time,TemperatureF,DewpointF,PressureIn,WindDirection,WindDirectionDegrees,WindSpeedMPH,WindSpeedGustMPH,Humidity,HourlyPrecipIn,Conditions,Clouds,dailyrainin,SoftwareType,DateUTC
2013-08-25 00:00:00,77.0,-99.9,-100.00,SSW,201,10.0,15.0,-999,-99.99,,,-99.99,,2013-08-25 06:00:00,
2013-08-25 00:52:00,77.0,-99.9,-100.00,SSW,201,10.0,15.0,-999,-99.99,,,-99.99,,2013-08-25 06:52:00,
2013-08-25 01:00:00,75.0,-99.9,-100.00,SSW,195,7.0,13.0,-999,-99.99,,,-99.99,,2013-08-25 07:00:00,
2013-08-25 01:53:00,75.0,-99.9,-100.00,SSW,195,7.0,13.0,-999,-99.99,,,-99.99,,2013-08-25 07:53:00,
2013-08-25 02:00:00,73.0,-99.9,-100.00,SSW,196,5.0,12.0,-999,-99.99,,,-99.99,,2013-08-25 08:00:00,
2013-08-25 02:53:00,73.0,-99.9,-100.00,SSW,196,5.0,12.0,-999,-99.99,,,-99.99,,2013-08-25 08:53:00,
2013-08-25 03:00:00,73.0,-99.9,-100.00,West,279,8.0,12.0,-999,-99.99,,,-99.99,,2013-08-25 09:00:00,
2013-08-25 03:55:00,73.0,-99.9,-100.00,West,279,8.0,12.0,-999,-99.99,,,-99.99,,2013-08-25 09:55:00,
2013-08-25 04:00:00,71.0,-99.9,-100.00,WSW,238,1.0,3.0,-999,-99.99,,,-99.99,,2013-08-25 10:00:00,
2013-08-25 04:53:00,71.0,-99.9,-100.00,WSW,238,1.0,3.0,-999,-99.99,,,-99.99,,2013-08-25 10:53:00,
2013-08-25 05:00:00,68.0,-99.9,-100.00,SSW,196,3.0,11.0,-999,-99.99,,,-99.99,,2013-08-25 11:00:00,
2013-08-25 05:52:00,68.0,-99.9,-100.00,SSW,196,3.0,11.0,-999,-99.99,,,-99.99,,2013-08-25 11:52:00,
2013-08-25 06:00:00,66.0,-99.9,-100.00,SSE,156,1.0,3.0,-999,-99.99,,,-99.99,,2013-08-25 12:00:00,
2013-08-25 06:52:00,66.0,-99.9,-100.00,SSE,156,1.0,3.0,-999,-99.99,,,-99.99,,2013-08-25 12:52:00,
2013-08-25 07:00:00,66.0,-99.9,-100.00,West,261,4.0,13.0,-999,-99.99,,,-99.99,,2013-08-25 13:00:00,
2013-08-25 07:52:00,66.0,-99.9,-100.00,West,261,4.0,13.0,-999,-99.99,,,-99.99,,2013-08-25 13:52:00,
2013-08-25 08:00:00,69.0,-99.9,-100.00,West,280,9.0,11.0,-999,-99.99,,,-99.99,,2013-08-25 14:00:00,
2013-08-25 08:52:00,69.0,-99.9,-100.00,West,280,9.0,11.0,-999,-99.99,,,-99.99,,2013-08-25 14:52:00,
2013-08-25 09:00:00,75.0,-99.9,-100.00,WSW,237,5.0,7.0,-999,-99.99,,,-99.99,,2013-08-25 15:00:00,
2013-08-25 09:55:00,75.0,-99.9,-100.00,WSW,237,5.0,7.0,-999,-99.99,,,-99.99,,2013-08-25 15:55:00,
2013-08-25 10:00:00,80.0,-99.9,-100.00,SW,218,5.0,7.0,-999,-99.99,,,-99.99,,2013-08-25 16:00:00,
2013-08-25 10:54:00,80.0,-99.9,-100.00,SW,218,5.0,7.0,-999,-99.99,,,-99.99,,2013-08-25 16:54:00,
2013-08-25 11:00:00,87.0,-99.9,-100.00,West,268,7.0,13.0,-999,-99.99,,,-99.99,,2013-08-25 17:00:00,
2013-08-25 11:53:00,87.0,-99.9,-100.00,West,268,7.0,13.0,-999,-99.99,,,-99.99,,2013-08-25 17:53:00,
2013-08-25 12:00:00,91.0,-99.9,-100.00,SW,232,7.0,21.0,-999,-99.99,,,-99.99,,2013-08-25 18:00:00,
2013-08-25 12:52:00,91.0,-99.9,-100.00,SW,232,7.0,21.0,-999,-99.99,,,-99.99,,2013-08-25 18:52:00,
2013-08-25 13:00:00,93.0,-99.9,-100.00,SSW,192,13.0,19.0,-999,-99.99,,,-99.99,,2013-08-25 19:00:00,
2013-08-25 13:53:00,93.0,-99.9,-100.00,SSW,192,13.0,19.0,-999,-99.99,,,-99.99,,2013-08-25 19:53:00,
2013-08-25 14:00:00,95.0,-99.9,-100.00,SSW,199,13.0,19.0,-999,-99.99,,,-99.99,,2013-08-25 20:00:00,
2013-08-25 14:53:00,95.0,-99.9,-100.00,SSW,199,13.0,19.0,-999,-99.99,,,-99.99,,2013-08-25 20:53:00,
2013-08-25 15:00:00,96.0,-99.9,-100.00,SW,218,11.0,17.0,-999,-99.99,,,-99.99,,2013-08-25 21:00:00,
2013-08-25 15:55:00,96.0,-99.9,-100.00,SW,218,11.0,17.0,-999,-99.99,,,-99.99,,2013-08-25 21:55:00,
2013-08-25 16:00:00,96.0,-99.9,-100.00,South,177,11.0,16.0,-999,-99.99,,,-99.99,,2013-08-25 22:00:00,
2013-08-25 16:54:00,96.0,-99.9,-100.00,South,177,11.0,16.0,-999,-99.99,,,-99.99,,2013-08-25 22:54:00,
2013-08-25 17:00:00,95.0,-99.9,-100.00,South,182,9.0,17.0,-999,-99.99,,,-99.99,,2013-08-25 23:00:00,
2013-08-25 17:53:00,95.0,-99.9,-100.00,South,182,9.0,17.0,-999,-99.99,,,-99.99,,2013-08-25 23:53:00,
2013-08-25 18:00:00,95.0,-99.9,-100.00,SSW,198,8.0,17.0,-999,-99.99,,,-99.99,,2013-08-26 00:00:00,
2013-08-25 18:52:00,95.0,-99.9,-100.00,SSW,198,8.0,17.0,-999,-99.99,,,-99.99,,2013-08-26 00:52:00,
2013-08-25 19:00:00,89.0,-99.9,-100.00,ESE,102,3.0,13.0,-999,-99.99,,,-99.99,,2013-08-26 01:00:00,
2013-08-25 19:52:00,89.0,-99.9,-100.00,ESE,102,3.0,13.0,-999,-99.99,,,-99.99,,2013-08-26 01:52:00,
2013-08-25 21:00:00,82.0,-99.9,-100.00,South,189,6.0,15.0,-999,-99.99,,,-99.99,,2013-08-26 03:00:00,
2013-08-25 21:56:00,82.0,-99.9,-100.00,South,189,6.0,15.0,-999,-99.99,,,-99.99,,2013-08-26 03:56:00,
2013-08-25 22:00:00,80.0,-99.9,-100.00,SSW,198,11.0,19.0,-999,-99.99,,,-99.99,,2013-08-26 04:00:00,
2013-08-25 22:53:00,80.0,-99.9,-100.00,SSW,198,11.0,19.0,-999,-99.99,,,-99.99,,2013-08-26 04:53:00,
2013-08-25 23:00:00,78.0,-99.9,-100.00,South,180,7.0,17.0,-999,-99.99,,,-99.99,,2013-08-26 05:00:00,
2013-08-25 23:53:00,78.0,-99.9,-100.00,South,180,7.0,17.0,-999,-99.99,,,-99.99,,2013-08-26 05:53:00,